sat.trackr.live / text

‹ back to catalog

STARLINK-35463

NORAD 66463 · 2025-262H

PAYLOAD ACTIVE UNKNOWN

§ Identity

Operator
Country
US
Launch date
2025-11-15
Launch site
AFETR
Launch vehicle
Mass (kg)
RCS (m²)

Purposes: comms

External: N2YO · Heavens-Above · Gunter

§ Orbital elements

Epoch: 2026-05-24T22:02:30.109056Z

Period
94.27 min
Inclination
43.0000°
Eccentricity
0.0001348
Mean motion
15.27586207 rev/d
Perigee alt
482.1 km
Apogee alt
484.0 km
Semi-major
6,861.2 km
B*
3.5306e-4
RAAN
225.7507°
Arg perigee
276.6107°
Mean anomaly
83.4591°
Rev number
3,056

§ Raw data

STARLINK-354631 66463U 25262H   26144.91840404  .00009468  00000+0  35306-3 0  99952 66463  43.0000 225.7507 0001348 276.6107  83.4591 15.27586207 30564

JSON: /api/v1/satellites/66463 · /tle

For live sub-satellite position, see the globe view (requires WebGL).

§ Visibility from observer

Set your observer location to see the next 7 days of passes ≥ 10°. The values pass through the URL so the page stays shareable.

No JS? Fill the form by hand. The geolocation button needs JavaScript.